This is the latest recevied weather packets stored in our database for station/object KI6AOK. If no packets are shown the sender has not sent any weather packets the latest 1 day(s).
| Time | Temp. | Humidity | Pressure | Rain* | Wind** | Luminosity | Snow |
|---|---|---|---|---|---|---|---|
| 1778060728 | 10° C | 91% | 1017.1 hPa | 0 mm | - | 0 W/m² | - |
| 1778060426 | 10° C | 91% | 1017.1 hPa | 0 mm | - | 0 W/m² | - |
| 1778059821 | 10° C | 91% | 1017.1 hPa | 0 mm | - | 0 W/m² | - |
| 1778059519 | 10° C | 91% | 1017.1 hPa | 0 mm | - | 0 W/m² | - |
| 1778059215 | 10° C | 91% | 1017.2 hPa | 0 mm | - | 0 W/m² | - |
| 1778057701 | 10.56° C | 91% | 1017.3 hPa | 0 mm | - | 0 W/m² | - |
| 1778056185 | 10.56° C | 90% | 1017.6 hPa | 0 mm | - | 0 W/m² | - |
| 1778055882 | 10.56° C | 90% | 1017.5 hPa | 0 mm | - | 0 W/m² | - |
| 1778054670 | 11.11° C | 88% | 1017.8 hPa | 0 mm | - | 0 W/m² | - |
| 1778054065 | 11.11° C | 87% | 1017.9 hPa | 0 mm | - | 0 W/m² | - |
| 1778053762 | 11.11° C | 87% | 1018 hPa | 0 mm | - | 0 W/m² | - |
| 1778053459 | 11.67° C | 87% | 1017.8 hPa | 0 mm | - | 0 W/m² | - |
| 1778053156 | 11.67° C | 87% | 1017.8 hPa | 0 mm | - | 0 W/m² | - |
| 1778052854 | 11.67° C | 87% | 1018.1 hPa | 0 mm | - | 0 W/m² | - |
| 1778052551 | 11.67° C | 88% | 1017.8 hPa | 0 mm | - | 0 W/m² | - |
| 1778051946 | 11.67° C | 87% | 1017.9 hPa | 0 mm | - | 0 W/m² | - |
| 1778051340 | 11.67° C | 86% | 1017.9 hPa | 0 mm | - | 0 W/m² | - |
| 1778050129 | 12.22° C | 85% | 1017.7 hPa | 0 mm | - | 0 W/m² | - |
| 1778049824 | 11.67° C | 85% | 1017.9 hPa | 0 mm | - | 0 W/m² | - |
| 1778049219 | 11.67° C | 85% | 1017.8 hPa | 0 mm | - | 0 W/m² | - |
| 1778048917 | 12.22° C | 84% | 1017.7 hPa | 0 mm | - | 0 W/m² | - |
| 1778048310 | 12.22° C | 83% | 1017.4 hPa | 0 mm | - | 0 W/m² | - |
| 1778046797 | 12.78° C | 80% | 1017.5 hPa | 0 mm | - | 0 W/m² | - |
| 1778046494 | 13.33° C | 80% | 1017.5 hPa | 0 mm | - | 0 W/m² | - |
| 1778045586 | 13.33° C | 79% | 1017.6 hPa | 0 mm | - | 0 W/m² | - |
* Rain latest hour (hover to see other rain measurements)
** Current wind speed in m/s (hover to see current wind gust speed)